Regional Weather Roundup
Issued by NWS

Home | Current Version | Previous Version | Text Only | Print | Product List | Glossary Off
Versions: 1 2 3 4 5 6 7 8 9 10 11 12 13 14 15 16 17 18 19 20 21 22 23 24 25 26 27 28 29 30 31 32 33 34 35 36 37 38 39 40 41 42 43 44 45 46 47 48 49 50

000
ASUS43 KLOT 012106
RWRIL

ILLINOIS REGIONAL WEATHER ROUNDUP
NATIONAL WEATHER SERVICE CHICAGO/ROMEOVILLE IL
400 PM CDT WED OCT 01 2014

NOTE: "FAIR" INDICATES FEW OR NO CLOUDS BELOW 12,000 FEET WITH NO
SIGNIFICANT WEATHER AND/OR OBSTRUCTIONS TO VISIBILITY.

* THESE STATIONS ARE NOT UNDER NWS QUALITY CONTROL. THEY ALSO MAY NOT
  REPORT WEATHER SUCH AS PRECIPITATION OR FOG.

ILZ001-002-007-009-015-016-024-012200-
NORTHWEST ILLINOIS

CITY           SKY/WX    TMP DP  RH WIND       PRES   REMARKS
MOLINE         CLOUDY    72  58  61 S8        29.82R
SAVANNA*       CLOUDY    75  56  52 SE10      29.83S
$$

ILZ003-004-008-010-011-017-018-012200-
NORTH CENTRAL ILLINOIS

CITY           SKY/WX    TMP DP  RH WIND       PRES   REMARKS
ROCKFORD       CLOUDY    72  53  51 SE14      29.88R
FREEPORT*      CLOUDY    72  55  56 SE14      29.86F
ROCHELLE*      PTSUNNY   73  54  51 SE14      29.86F
DE KALB*       PTSUNNY   69  54  59 SE14      29.89S
PERU*          CLOUDY    77  58  51 SE9       29.85F
$$

ILZ005-006-012>014-019>023-012200-
NORTHEAST ILLINOIS

CITY           SKY/WX    TMP DP  RH WIND       PRES   REMARKS
CHICAGO-OHARE  PTSUNNY   67  52  58 SE14      29.91S
CHICAGO-MIDWAY PTSUNNY   71  54  54 SE10      29.91F
AURORA         PTSUNNY   73  54  51 SE14G21   29.89F
LANSING*       MOSUNNY   70  54  57 SE12      29.92S
JOLIET*        PTSUNNY   74  55  51 SE7       29.89F
WAUKEGAN       MOSUNNY   60  52  74 E14       29.92
DUPAGE AIRPORT PTSUNNY   73  55  53 SE13      29.89F
WHEELING       MOSUNNY   66  52  60 SE10      29.93S
MORRIS*        PTSUNNY   76  58  54 SE10      29.87F
ROMEOVILLE*    PTSUNNY   73  54  50 SE9       29.89F
NORTHERLY ISL    N/A     64  54  69 E12         N/A
$$

LMZ740>746-012200-
SOUTHERN LAKE MICHIGAN

STATION/POSITION SKY/WX   TEMP    WIND        PRES    VSBY  WAVE
                          AIR SEA DIR/SP/G                  HT/PER
                          (F)     (DEG/KT/KT) (MB)    (MI)  (FT/S)
SOUTHERN BUOY              59 61  110/ 14/ 16 1013.9F         2/ 3
WAUKEGAN HARBOR            60     130/ 12/ 15   N/A
HARRISON CRIB              62      90/ 14/ 16   N/A
BURNHAM HARBOR             64      90/ 10/ 13   N/A
CALUMET HARBOR             66      80/  8/ 11 1011.9R
MICHIGAN CITY              67      90/ 11/ 14   N/A
MICHIGAN CITY 6N           67 65  130/ 10/ 12   N/A           1/ 2
ST. JOSEPH                 66 63  120/  8/ 10   N/A           1/ 2
$$

ILZ025>027-034>036-040-047-049-050-058-095>099-012200-
WEST-CENTRAL ILLINOIS

CITY           SKY/WX    TMP DP  RH WIND       PRES   REMARKS
QUINCY         TSTM      65  63  93 SE7       29.83S FOG
GALESBURG*     CLOUDY    70  61  74 S7        29.83F
MACOMB*        LGT RAIN  64  63  96 CALM      29.85F
JACKSONVILLE*  CLOUDY    70  66  87 NW7       29.85F
PITTSFIELD*    CLOUDY    67  64  87 NE6       29.83F
$$

ILZ028>032-037-038-041>044-048-051>054-059>061-012200-
CENTRAL ILLINOIS

CITY           SKY/WX    TMP DP  RH WIND       PRES   REMARKS
PONTIAC        PTSUNNY   82  55  39 SE7       29.86F HX  82
BLOOMINGTON    MOSUNNY   79  61  53 S9          N/A  HX  80
DECATUR        PTSUNNY   83  58  42 S13       29.86F HX  83
PEORIA         CLOUDY    78  61  55 SW5       29.84F HX  80
LACON*         CLOUDY    76  59  56 S5        29.83F
LINCOLN*       CLOUDY    82  57  42 S8        29.82S HX  82
SPRINGFIELD    CLOUDY    83  60  45 S8        29.84F HX  83
TAYLORVILLE    PTSUNNY   82  59  44 S8G16     29.84F HX  82
$$

ILZ033-039-045-046-055>057-062-063-012200-
EAST-CENTRAL ILLINOIS

CITY           SKY/WX    TMP DP  RH WIND       PRES   REMARKS
CHAMPAIGN      PTSUNNY   82  55  39 S9        29.88F HX  82
DANVILLE*      MOSUNNY   79  58  48 S8        29.87F HX  80
RANTOUL*       PTSUNNY   83  52  34 SE7       29.89S HX  81
MATTOON        MOSUNNY   81  57  43 SE10      29.87F HX  81
PARIS*         MOSUNNY   82  56  40 SE9       29.90F HX  82
$$

ILZ079-100>102-012200-
SOUTHWEST ILLINOIS

CITY           SKY/WX    TMP DP  RH WIND       PRES   REMARKS
ALTON          MOSUNNY   84  57  39 SE15      29.81F HX  83
BELLEVILLE     MOSUNNY   87  66  48 VRB7      29.80F HX  89
CAHOKIA*       MOSUNNY   88  63  43 S9        29.79F HX  89
SPARTA*        MOSUNNY   86  63  45 S9G16     29.84F HX  87
$$

ILZ064>066-069>071-074>076-080>082-084>086-088>090-092>094-012200-
SOUTH-CENTRAL ILLINOIS

CITY           SKY/WX    TMP DP  RH WIND       PRES   REMARKS
CARBONDALE     SUNNY     85  62  46 S9        29.85F HX  85
CAIRO*         SUNNY     88  61  40 S7        29.85F HX  88
EFFINGHAM*     SUNNY     83  55  37 S9        29.88S HX  82
MARION         MOSUNNY   86  61  42 SW12      29.87F HX  86
CENTRALIA*     SUNNY     84  58  40 S10       29.85F HX  83
SALEM*         MOSUNNY   85  63  46 SE8       29.86F HX  86
METROPOLIS*    SUNNY     89  60  38 S6        29.86F HX  88
$$

ILZ067-068-072-073-078-083-087-091-012200-
SOUTHEAST ILLINOIS

CITY           SKY/WX    TMP DP  RH WIND       PRES   REMARKS
LAWRENCEVILLE  MOSUNNY   85  55  35 S7        29.90F HX  83
FLORA*         SUNNY     85  57  38 S5        29.88F HX  84
FAIRFIELD*     SUNNY     86  59  39 S6        29.87F HX  85
HARRISBURG*    MOSUNNY   86  59  39 S8        29.88F HX  85
ROBINSON*      MOSUNNY   85  59  40 S7        29.90F HX  84
CARMI*         MOSUNNY   88  58  36 SE10      29.88S HX  87
$$

ABBREVIATIONS USED IN REMARKS
   TC - TEMPERATURE IN CELSIUS
  WCI - WIND CHILL INDEX
   HX - HEAT INDEX
  VSB - VISIBILITY
$$




USA.gov is the U.S. government's official web portal to all federal, state and local government web resources and services.